Wind_Speed
16 15 14 12 11 9 7 5 4 2 3 4 6 8 8 10 11 13 13 13 13 14 14 13 14 14 14 14 13 13 12 11 10 10 9 8 8 7 6 5 4 3 3 3
19 18 16 15 13 10 8 6 4 3 2 2 3 5 6 8 9 10 12 12 12 12 13 13 13 13 14 14 13 13 12 12 11 10 9 8 8 7 6 5 4 4 4 4
21 19 18 16 15 13 10 8 6 5 3 1 1 3 4 5 7 8 9 11 11 11 11 11 12 12 12 13 13 13 12 12 11 10 9 9 9 8 7 6 5 5 5 5
25 22 19 18 17 15 13 11 8 7 5 4 2 2 4 3 5 6 7 9 10 10 10 10 11 11 11 11 12 12 12 12 11 10 9 9 9 9 8 8 7 7 7 7
27 24 22 21 19 18 17 13 11 9 8 6 5 3 4 4 4 5 6 7 8 9 8 9 9 10 10 10 11 11 12 12 12 11 9 9 9 9 9 9 8 8 8 7
28 25 24 22 21 20 18 16 13 11 10 10 8 5 6 5 4 5 6 6 7 7 8 8 8 9 10 10 10 10 11 11 12 11 10 10 10 10 10 10 10 9 8 8
30 28 26 24 23 22 20 18 15 13 13 12 10 9 8 7 5 5 5 6 6 6 7 7 8 8 9 10 10 10 11 11 12 12 11 11 11 10 11 11 10 10 9 9
31 30 28 26 24 23 22 20 19 16 14 13 13 11 9 8 6 5 5 5 5 5 6 7 7 8 9 10 10 11 11 11 12 12 11 11 11 11 11 11 11 11 10 10
32 32 30 27 25 25 23 23 20 18 16 14 15 13 10 9 7 6 6 6 5 5 6 7 8 8 9 10 11 11 12 12 12 13 12 12 11 11 11 12 11 11 11 11
33 33 31 29 28 27 26 24 22 20 18 17 16 15 12 10 9 8 7 7 7 7 7 7 8 9 10 11 12 12 12 12 13 13 13 12 11 11 12 12 12 13 13 12
34 33 32 32 31 29 28 26 25 23 21 18 16 16 15 13 11 10 10 9 9 8 8 9 9 10 11 11 12 13 13 13 13 13 14 13 12 12 11 12 13 13 13 13
35 33 33 33 32 31 30 28 26 25 24 21 18 17 17 15 13 12 11 10 10 9 10 10 10 11 11 12 12 13 13 13 13 13 14 14 13 12 13 12 13 13 13 13
36 35 34 33 33 32 32 30 29 27 25 23 20 18 20 17 15 14 13 13 12 11 11 11 11 11 12 13 13 14 14 13 13 13 13 14 13 13 13 13 13 13 14 13
37 37 35 32 31 32 32 31 30 29 27 25 22 20 21 19 17 15 14 14 13 13 13 12 12 12 13 14 14 14 13 13 13 13 14 14 14 14 14 13 14 14 14 14
38 37 36 34 33 33 32 32 31 30 29 26 24 23 22 21 19 17 16 16 15 15 15 14 14 14 15 15 15 14 13 13 13 14 14 14 15 15 15 14 15 15 15 15
39 38 36 36 35 33 33 33 32 31 30 28 26 25 24 23 22 20 19 18 17 17 16 16 16 16 16 16 15 15 14 14 14 14 14 15 16 16 16 15 16 16 16 16
38 37 36 35 35 35 35 34 33 32 30 29 27 26 26 25 23 22 21 20 19 18 18 17 18 17 17 17 16 16 16 16 16 16 16 16 16 16 17 17 16 16 16 17
39 37 36 35 35 37 35 34 33 32 31 29 28 28 27 26 24 24 23 22 21 20 20 19 20 19 18 18 17 18 18 18 18 17 17 18 18 18 18 17 17 17 17 18
39 38 37 36 36 36 36 35 33 32 32 31 30 29 28 27 26 26 26 24 23 22 22 22 22 21 21 21 20 20 20 20 20 19 19 19 19 20 19 18 18 19 18 18
40 39 38 38 36 35 36 34 32 32 33 32 31 30 29 29 29 28 27 26 25 24 24 24 23 23 23 22 22 22 22 22 22 21 21 21 22 22 21 21 20 19 19 19
40 40 39 38 37 35 36 33 32 33 32 30 30 30 30 29 28 28 28 27 26 26 26 26 25 25 24 24 24 24 24 24 23 23 23 23 23 23 23 22 21 20 20 19
40 39 39 38 37 37 36 34 34 33 31 30 30 29 30 29 29 28 28 28 28 27 28 27 27 26 25 25 25 25 25 24 24 24 24 25 25 24 23 23 22 21 20 19
39 39 38 38 37 37 35 34 34 33 32 30 30 30 30 29 29 28 28 28 28 27 27 27 28 27 26 26 26 26 25 25 25 25 25 25 25 24 24 22 21 21 20 20
39 39 39 38 37 35 34 33 33 33 33 31 30 30 30 30 29 29 29 29 29 28 28 28 28 28 28 27 26 27 27 26 26 26 26 25 25 24 23 22 22 21 21 21
39 39 38 38 37 35 34 32 32 32 32 31 30 29 30 31 30 29 29 30 30 29 29 29 29 29 28 27 27 26 26 26 26 26 27 26 25 24 23 23 22 21 21 21
40 39 39 38 37 36 34 32 32 31 31 31 30 29 29 30 31 30 30 30 30 30 30 30 30 29 28 27 26 26 26 26 26 26 26 26 25 24 23 23 22 22 21 21
Wind_Direction
206 207 205 202 192 187 179 168 166 149 101 81 66 58 53 50 46 44 41 38 37 39 40 42 44 45 47 50 53 53 51 48 45 44 47 50 48 45 45 45 41 27 8 356
212 212 208 206 205 204 195 183 181 190 160 111 71 52 46 46 45 40 36 34 32 33 36 39 41 43 45 47 48 46 43 41 39 36 36 37 32 30 28 27 18 1 348 336
217 217 214 211 212 213 211 204 201 210 208 188 49 17 16 33 36 34 31 28 27 28 31 32 32 34 38 42 41 39 37 31 27 26 26 25 23 21 16 10 1 342 334 327
219 219 216 216 217 217 220 219 218 219 218 234 219 286 323 358 20 22 20 18 20 21 22 23 23 27 30 33 34 34 30 24 19 16 16 17 12 9 5 354 347 341 328 319
221 219 217 218 218 219 223 226 229 229 226 232 244 241 282 307 341 359 4 3 6 11 13 15 18 20 20 23 25 27 25 20 15 12 11 9 6 2 358 352 344 336 331 324
220 219 219 219 219 219 224 227 233 236 234 236 240 235 256 278 305 330 344 350 351 358 8 10 11 13 15 15 16 17 16 13 10 7 4 0 358 353 353 351 348 340 334 329
219 220 220 220 220 220 222 225 231 236 237 240 244 242 246 262 281 305 323 337 341 345 356 2 5 7 8 8 9 8 8 7 5 3 360 353 351 349 348 345 344 339 332 326
222 223 222 221 221 223 223 225 225 228 239 245 249 247 252 263 276 292 304 315 324 329 339 346 353 358 0 360 0 0 359 359 359 356 354 351 347 345 345 344 342 341 333 328
222 225 225 224 223 224 225 226 228 232 236 237 246 253 252 261 274 284 291 292 299 310 321 329 338 347 351 352 352 351 351 350 350 350 350 348 346 344 342 342 344 342 336 329
222 225 225 224 225 226 227 229 230 230 233 240 248 255 253 259 270 277 283 284 286 292 303 315 322 331 337 341 343 343 343 343 342 344 345 345 343 341 338 338 340 339 337 331
221 224 226 225 225 227 228 230 231 233 234 237 246 254 256 255 262 268 274 279 280 284 291 301 310 317 326 332 335 337 338 337 337 339 340 341 338 336 335 334 337 337 337 335
221 223 226 227 227 228 230 232 233 236 239 237 239 252 256 256 261 264 268 272 274 277 283 293 301 307 314 322 325 327 330 330 330 332 335 335 332 328 327 329 333 337 339 338
220 222 225 228 228 228 230 232 234 236 240 241 240 248 255 255 257 259 263 267 268 269 275 282 289 296 303 312 315 318 320 320 321 325 327 328 328 328 328 329 331 333 333 334
221 223 224 227 231 231 231 233 235 236 237 241 240 242 252 252 253 256 260 262 262 264 267 273 281 288 296 302 307 311 313 315 316 319 321 322 325 328 326 324 326 329 330 330
221 224 225 225 229 233 234 234 235 235 237 239 242 244 249 252 252 255 259 259 258 261 264 268 276 284 291 296 300 303 306 309 312 313 316 318 318 322 325 324 324 324 326 326
221 223 224 226 229 232 234 235 235 236 237 239 241 243 247 250 252 253 256 256 256 261 264 267 272 280 288 292 294 296 299 304 307 311 313 314 318 320 323 324 322 321 321 322
221 222 224 227 229 231 233 234 236 238 239 240 241 242 245 248 250 251 252 253 255 260 263 266 271 277 285 289 289 292 293 297 301 304 307 310 313 315 317 319 319 319 319 319
221 223 224 227 229 232 233 234 236 239 240 241 241 243 245 248 249 249 249 251 255 260 263 266 269 274 279 284 287 291 292 293 295 298 302 305 307 309 310 313 314 314 316 316
221 223 225 227 231 234 234 234 236 238 239 240 242 243 243 246 248 249 250 252 254 258 262 265 268 272 277 282 285 288 291 292 293 294 298 301 302 305 307 308 309 310 311 312
222 223 225 227 230 233 235 234 235 238 240 239 241 242 243 245 246 249 251 252 253 256 260 264 267 271 276 280 283 285 288 288 290 292 294 297 299 300 303 305 305 305 306 307
221 223 225 228 230 233 235 235 234 236 238 238 240 242 243 245 246 248 249 250 252 254 258 262 265 270 273 277 280 281 282 284 285 288 291 293 296 297 299 300 301 302 304 305
221 223 225 227 229 233 235 235 235 236 238 239 240 241 243 245 245 246 247 249 251 254 258 261 265 268 271 274 277 278 278 280 281 285 288 290 291 293 294 296 297 299 301 301
221 223 226 228 230 235 237 237 238 238 239 240 242 242 243 244 244 245 247 249 251 255 258 261 264 268 271 274 275 275 276 278 280 282 285 288 289 290 292 292 293 296 297 298
221 223 225 227 230 234 237 238 238 240 240 241 243 243 243 243 244 246 247 250 252 257 258 262 265 269 272 274 276 276 277 278 280 281 282 284 285 288 290 290 291 293 295 296
221 222 225 228 230 232 234 236 238 240 240 241 242 243 243 243 243 245 247 250 253 256 258 263 266 269 272 273 274 276 276 278 279 281 282 281 282 285 286 289 290 291 293 296
222 223 225 228 229 231 233 236 238 239 240 241 241 242 243 243 244 246 248 251 254 256 259 262 265 267 269 271 273 275 275 276 277 279 280 280 281 281 283 286 288 289 291 295
Height
5932 5936 5938 5941 5943 5945 5946 5947 5947 5947 5947 5946 5946 5945 5944 5942 5941 5939 5938 5936 5935 5933 5931 5929 5928 5926 5924 5922 5920 5919 5918 5917 5915 5914 5913 5912 5911 5910 5910 5909 5908 5908 5907 5907
5931 5933 5936 5938 5940 5942 5944 5946 5947 5947 5947 5947 5946 5946 5945 5944 5943 5941 5940 5938 5937 5935 5933 5932 5930 5928 5926 5924 5923 5921 5920 5918 5917 5915 5914 5913 5912 5911 5910 5910 5909 5908 5907 5906
5927 5931 5933 5936 5938 5940 5942 5945 5946 5946 5946 5947 5947 5947 5947 5945 5944 5943 5942 5940 5939 5937 5935 5934 5932 5930 5928 5926 5925 5923 5921 5920 5918 5917 5915 5914 5913 5912 5911 5910 5909 5908 5907 5906
5923 5926 5930 5933 5936 5938 5941 5943 5944 5945 5946 5947 5948 5950 5948 5946 5945 5944 5943 5941 5940 5939 5937 5935 5933 5932 5930 5928 5926 5925 5923 5921 5919 5918 5917 5915 5913 5912 5911 5910 5908 5907 5906 5905
5919 5923 5926 5929 5933 5936 5938 5940 5942 5944 5945 5947 5947 5949 5950 5946 5946 5945 5944 5942 5941 5940 5938 5936 5935 5933 5931 5930 5928 5926 5924 5922 5920 5919 5917 5915 5914 5912 5911 5909 5908 5907 5905 5904
5915 5919 5922 5926 5929 5932 5935 5938 5939 5941 5944 5946 5946 5947 5949 5947 5946 5945 5944 5943 5941 5940 5939 5937 5936 5934 5932 5931 5929 5927 5925 5923 5921 5919 5917 5916 5914 5912 5910 5909 5907 5906 5904 5903
5910 5914 5918 5921 5925 5928 5932 5936 5939 5940 5942 5944 5944 5944 5946 5945 5945 5944 5943 5942 5941 5940 5939 5937 5936 5934 5933 5931 5929 5928 5926 5924 5922 5920 5918 5916 5914 5912 5910 5908 5907 5905 5903 5902
5905 5910 5913 5917 5921 5924 5928 5932 5937 5940 5942 5943 5941 5942 5944 5943 5943 5943 5942 5941 5940 5940 5939 5937 5936 5934 5933 5931 5929 5928 5926 5924 5922 5920 5917 5915 5913 5911 5909 5908 5906 5904 5902 5900
5901 5905 5909 5913 5917 5920 5924 5927 5932 5935 5937 5939 5940 5940 5940 5940 5941 5941 5940 5940 5939 5939 5938 5937 5935 5934 5932 5931 5929 5927 5925 5923 5921 5919 5917 5915 5913 5911 5909 5907 5905 5903 5901 5899
5895 5900 5903 5907 5912 5915 5919 5923 5926 5929 5932 5935 5937 5937 5938 5938 5938 5939 5938 5938 5938 5937 5936 5935 5934 5933 5931 5930 5928 5926 5924 5923 5921 5919 5916 5914 5912 5910 5908 5906 5904 5901 5899 5897
5889 5894 5898 5902 5906 5910 5914 5918 5921 5925 5928 5932 5935 5937 5934 5935 5935 5936 5936 5936 5936 5935 5934 5934 5933 5931 5930 5929 5927 5925 5923 5921 5919 5917 5915 5913 5911 5909 5907 5905 5903 5900 5898 5896
5883 5888 5892 5896 5901 5905 5909 5912 5916 5920 5922 5925 5930 5935 5930 5931 5932 5933 5933 5933 5933 5933 5932 5931 5930 5929 5928 5927 5925 5924 5922 5920 5918 5916 5914 5911 5909 5907 5905 5903 5901 5899 5897 5894
5876 5881 5886 5890 5895 5899 5902 5906 5910 5914 5917 5921 5925 5930 5925 5927 5928 5929 5930 5930 5930 5930 5929 5929 5928 5927 5926 5925 5924 5922 5920 5918 5916 5914 5912 5910 5908 5905 5904 5902 5900 5897 5895 5893
5870 5875 5881 5886 5889 5893 5896 5900 5904 5908 5912 5915 5919 5923 5921 5922 5924 5925 5926 5926 5926 5926 5926 5926 5925 5924 5923 5922 5921 5919 5918 5916 5914 5912 5910 5908 5905 5903 5901 5899 5897 5895 5893 5890
5862 5868 5873 5879 5883 5886 5890 5894 5898 5902 5906 5910 5913 5916 5917 5918 5919 5920 5921 5922 5922 5923 5923 5922 5922 5921 5920 5919 5918 5916 5915 5913 5911 5910 5908 5906 5903 5901 5899 5897 5895 5893 5890 5888
5855 5861 5867 5871 5876 5879 5883 5887 5891 5895 5899 5903 5907 5910 5911 5912 5914 5915 5916 5917 5918 5918 5919 5919 5918 5917 5916 5915 5914 5913 5912 5910 5908 5907 5905 5903 5901 5899 5897 5894 5892 5890 5888 5885
5848 5854 5860 5865 5869 5872 5876 5881 5885 5889 5892 5897 5900 5904 5904 5906 5908 5910 5911 5912 5913 5914 5914 5914 5914 5913 5912 5911 5910 5909 5908 5906 5905 5903 5902 5900 5898 5896 5894 5892 5890 5887 5885 5883
5841 5847 5853 5858 5862 5865 5872 5875 5878 5882 5886 5890 5893 5896 5898 5900 5902 5904 5905 5907 5908 5909 5909 5909 5909 5909 5908 5907 5906 5905 5904 5902 5901 5899 5898 5896 5894 5893 5890 5889 5887 5884 5882 5879
5833 5839 5845 5850 5854 5858 5863 5867 5871 5875 5879 5882 5886 5888 5891 5893 5895 5897 5899 5901 5902 5903 5904 5904 5904 5903 5903 5902 5901 5900 5899 5898 5896 5895 5894 5892 5890 5888 5887 5885 5883 5880 5878 5876
5826 5832 5838 5842 5847 5851 5857 5860 5864 5869 5871 5875 5878 5881 5884 5886 5889 5891 5892 5894 5896 5897 5898 5898 5898 5898 5898 5897 5896 5895 5894 5893 5892 5890 5889 5888 5886 5884 5882 5880 5878 5876 5874 5872
5818 5823 5828 5834 5839 5844 5848 5852 5857 5861 5865 5868 5871 5874 5876 5879 5882 5884 5885 5887 5889 5890 5891 5892 5892 5892 5892 5891 5890 5889 5888 5887 5886 5885 5884 5882 5881 5879 5877 5876 5874 5872 5869 5867
5811 5816 5821 5827 5832 5838 5840 5845 5849 5853 5857 5860 5863 5866 5869 5871 5874 5876 5878 5880 5882 5883 5884 5885 5885 5885 5885 5884 5884 5883 5882 5881 5880 5879 5878 5877 5875 5874 5872 5870 5869 5867 5864 5862
5803 5810 5815 5820 5826 5829 5833 5837 5841 5845 5849 5852 5855 5858 5861 5864 5866 5869 5871 5873 5874 5876 5877 5877 5878 5878 5878 5877 5877 5876 5875 5874 5873 5872 5871 5870 5869 5868 5866 5865 5863 5861 5859 5857
5795 5801 5806 5811 5817 5821 5825 5829 5833 5837 5841 5844 5847 5850 5853 5856 5859 5861 5863 5865 5867 5868 5869 5869 5870 5870 5870 5870 5869 5869 5868 5867 5866 5865 5864 5863 5862 5861 5860 5859 5857 5855 5854 5852
5788 5793 5798 5804 5809 5813 5817 5822 5825 5829 5832 5836 5839 5842 5845 5848 5851 5853 5855 5857 5859 5860 5861 5861 5862 5862 5862 5862 5861 5861 5860 5859 5858 5857 5857 5856 5855 5855 5854 5852 5851 5850 5848 5847
5780 5786 5791 5796 5802 5806 5811 5814 5818 5821 5825 5828 5831 5834 5837 5839 5842 5845 5847 5849 5850 5852 5852 5853 5854 5854 5854 5854 5853 5853 5852 5852 5851 5850 5850 5849 5848 5848 5847 5846 5845 5844 5842 5841